Content
SEND FEEDBACK

Daily
Averages
Monthly
Summary
United States of America

ST. LOUIS, MISSOURI


Home > North America > United States > Missouri
Elevation: 535 feet     Latitude: 38 45N     Longitude: 090 22W

WEATHER
 
SELECT A DAY
Number of Records: 196,446;   Date Range: 1/1/95 - 8/12/14
 
SHARE

PRINT THIS DATA

[ ← Previous Day ]
WEATHER ALMANAC - JULY 22, 2013
[ Next Day → ]
[ °C ]   °F
Weather ElementAverageHighLow
Temperature77.4 °F91 °F (3:54 pm)69.8 °F (5:15 am)
Dewpoint70.5 °F73.9 °F (7:54 pm)68 °F (2:54 am)
Humidity81.4 %100 % (5:30 am)48 % (4:54 pm)
Barometer29.82 in29.87 in (7:41 am)29.75 in (6:54 pm)
Wind Speed3.2 mph10.4 mph (3:54 pm)
Weather ElementAverage
Visibility6.8 mi
Wind DirectionSE (129.7 °)

Weather ElementTotal
Precipitation---
Cooling Degree Days15.4 (Base 65)
Growing Degree Days30.4 (Base 50)
Averaged from 32 records on July 22, 2013
WEATHER CONDITIONS BREAKOUT
WIND DIRECTION BREAKOUT
WEATHER BY HOUR - JULY 22, 2013
[ °C ]   °F
Local TimeTemperatureDewpointHumidityBarometerVisibilityWind DirectionWind SpeedGust SpeedPrecipitationEventsConditions
1:54 AM72.0 °F70.0 °F93 %29.82 in10.0 miCalmMostly Cloudy
2:54 AM70.0 °F68.0 °F93 %29.81 in8.0 miCalmPartly Cloudy
3:54 AM70.0 °F69.1 °F97 %29.80 in10.0 miSSW (210°)3.5 mphPartly Cloudy
4:54 AM70.0 °F68.0 °F93 %29.80 in10.0 miSW (230°)3.5 mphClear
5:15 AM69.8 °F68.0 °F94 %29.82 in7.0 miSSW (210°)3.5 mphScattered Clouds
5:21 AM69.8 °F68.0 °F94 %29.83 in2.5 miSW (230°)3.5 mphMostly Cloudy
5:30 AM69.8 °F69.8 °F100 %29.83 in1.5 miSW (220°)3.5 mphMostly Cloudy
5:43 AM69.8 °F69.8 °F100 %29.83 in0.5 miCalmFogFog
5:54 AM70.0 °F69.1 °F97 %29.81 in0.5 miCalmFogFog
6:54 AM71.1 °F70.0 °F96 %29.83 in0.5 miCalmFogFog
7:12 AM71.6 °F69.8 °F94 %29.86 in0.2 miCalmFogFog
7:41 AM71.6 °F69.8 °F94 %29.87 in0.5 miSW (230°)3.5 mphFogFog
7:54 AM71.1 °F70.0 °F96 %29.85 in0.5 miSSW (210°)3.5 mphFogFog
8:14 AM71.6 °F69.8 °F94 %29.87 in1.0 miSW (230°)3.5 mphOvercast
8:43 AM71.6 °F71.6 °F100 %29.87 in2.5 miWSW (240°)4.6 mphOvercast
8:54 AM72.0 °F71.1 °F97 %29.85 in3.0 miWSW (240°)6.9 mphOvercast
9:54 AM77.0 °F70.0 °F79 %29.85 in10.0 miCalmMostly Cloudy
9:59 AM77.0 °F71.6 °F83 %29.87 in10.0 miWest (280°)3.5 mphScattered Clouds
10:54 AM81.0 °F71.1 °F72 %29.85 in10.0 miVariable5.8 mphPartly Cloudy
11:54 AM82.9 °F72.0 °F69 %29.83 in10.0 miCalmScattered Clouds
12:54 PM87.1 °F68.0 °F53 %29.83 in10.0 miVariable5.8 mphScattered Clouds
1:54 PM88.0 °F70.0 °F55 %29.82 in10.0 miSSW (210°)5.8 mphScattered Clouds
2:54 PM90.0 °F70.0 °F52 %29.81 in10.0 miWest (260°)8.1 mphScattered Clouds
3:54 PM91.0 °F70.0 °F50 %29.80 in10.0 miWSW (250°)10.4 mphScattered Clouds
4:54 PM91.0 °F69.1 °F48 %29.78 in10.0 miWest (260°)9.2 mphScattered Clouds
5:54 PM91.0 °F70.0 °F50 %29.76 in10.0 miWSW (250°)6.9 mphClear
6:54 PM87.1 °F73.0 °F63 %29.75 in10.0 miSSW (210°)3.5 mphClear
7:54 PM84.9 °F73.9 °F69 %29.75 in10.0 miSouth (180°)3.5 mphClear
8:54 PM81.0 °F73.9 °F79 %29.76 in10.0 miCalmClear
9:54 PM79.0 °F73.9 °F84 %29.79 in10.0 miCalmClear
10:54 PM81.0 °F73.0 °F77 %29.80 in10.0 miCalmClear
11:54 PM77.0 °F73.9 °F90 %29.80 in10.0 miCalmClear
Hourly data recorded from KSUS, located miles away from St. Louis, Missouri







STORIES FROM OUR PARTNERS